Retour au catalogue

STARLINK-35129

ActifCommunicationsVLEO
NORAD 66077·PAYLOAD·🇺🇸 United States

Lancé Oct 19, 2025 depuis Cape Canaveral Space Force Station

Loading…

Prochains Passages (prochaines 24 heures)

TLE

FraisSource: CelesTrak SupGP

Époque: Sep 14, 2026, 23:06 UTC

1 66077C 25235V   26257.96298611  .00034877  00000+0  10307-2 0  2575
2 66077  53.1567  83.5627 0001184  83.7666   2.4711 15.34366837    18

Suivez STARLINK-35129 en temps réel avec AllMySat

Download on the App Store